DW7823 Marysville WA US current weather conditions

sailwx.info

Wind from 110

Air temperature -3.3° C
Dewpoint -10.8° C

Last reported at 2019-Nov-22 12:03 UTC.
Time now 2019-Nov-22 12:43 UTC

Location: N 48°06' W 122°09'.
View on Google Maps.

See reports from other nearby stations

  
Tides and Currents Weather Stations Pressure Air Temp Water Temp Dewpoint Dewpoint Depression Visibility Wind Speed Wind Dir Waves Ship Positions
date/time (UTC)wind fromknots sea level pressurealtimeterstation pressurevisibilityair tempwater tempwave heightnotes
2019-Nov-22 12:03 110 -3.3
2019-Nov-22 11:53 110 -2.8
2019-Nov-22 11:43 110 -2.8
2019-Nov-22 11:33 300 -2.8
2019-Nov-22 11:23 292 -2.8
2019-Nov-22 11:13 298 -2.8
2019-Nov-22 11:03 101 -2.2
2019-Nov-22 10:53 101 -2.2
2019-Nov-22 10:43 113 -2.2
2019-Nov-22 10:33 113 -2.2
2019-Nov-22 10:23 113 -2.2
2019-Nov-22 10:13 121 -2.2
2019-Nov-22 10:03 120 -2.2
2019-Nov-22 09:53 120 -2.2
2019-Nov-22 09:43 283 -2.2
2019-Nov-22 09:33 283 0 gusting 1 -2.2
2019-Nov-22 09:23 271 0 gusting 1 -2.2
2019-Nov-22 09:13 108 -2.2
2019-Nov-22 09:03 108 -2.8
2019-Nov-22 08:53 101 0 gusting 0 -2.2
2019-Nov-22 08:43 225 -2.2
2019-Nov-22 08:33 174 -2.2
2019-Nov-22 08:23 175 -1.7
2019-Nov-22 08:13 250 -1.7
2019-Nov-22 08:03 278 0 gusting 1 -1.7
2019-Nov-22 07:53 278 -1.7
2019-Nov-22 07:43 278 -1.7
2019-Nov-22 07:33 278 -1.7
2019-Nov-22 07:23 095 0 gusting 1 -1.7
2019-Nov-22 07:13 283 -1.7
2019-Nov-22 07:03 274 -1.7
2019-Nov-22 06:53 097 -1.7
2019-Nov-22 06:43 288 -1.7
2019-Nov-22 06:33 288 -1.1
2019-Nov-22 06:23 288 -1.1
2019-Nov-22 06:13 288 -1.1
2019-Nov-22 06:03 288 -1.1
2019-Nov-22 05:53 288 -1.1
2019-Nov-22 05:43 288 -0.6
2019-Nov-22 05:33 288 -0.6
2019-Nov-22 05:23 288 -0.6
2019-Nov-22 05:13 288 -0.6
2019-Nov-22 05:03 288 0 gusting 1 -0.6
2019-Nov-22 04:53 290 0 gusting 1 -0.6
2019-Nov-22 04:43 280 -0.6
2019-Nov-22 04:33 279 -0.0
2019-Nov-22 04:23 280 -0.0
2019-Nov-22 04:13 280 0.6
2019-Nov-22 04:03 280 0.6
2019-Nov-22 03:53 279 0.6
2019-Nov-22 03:43 280 1.1
2019-Nov-22 03:33 278 0 gusting 1 0.6
2019-Nov-22 03:23 104 1.1
2019-Nov-22 03:13 105 1.1
2019-Nov-22 03:03 102 1.1
2019-Nov-22 02:53 102 1.7
2019-Nov-22 02:43 101 1.7
2019-Nov-22 02:33 101 2.2
2019-Nov-22 02:23 106 2.8
2019-Nov-22 02:13 105 2.8
2019-Nov-22 02:03 105 2.8
2019-Nov-22 01:53 106 3.3
2019-Nov-22 01:43 105 3.9
2019-Nov-22 01:33 106 4.4
2019-Nov-22 01:23 105 4.4
2019-Nov-22 01:13 105 4.4
2019-Nov-22 01:03 102 0 gusting 1 5.0
2019-Nov-22 00:53 110 0 gusting 0 5.6
2019-Nov-22 00:43 221 6.1
2019-Nov-22 00:33 221 6.7
2019-Nov-22 00:23 221 7.8
2019-Nov-22 00:13 221 7.8
2019-Nov-22 00:03 225 8.3
2019-Nov-21 23:53 209 0 gusting 1 8.9
2019-Nov-21 23:43 221 8.9
2019-Nov-21 23:33 139 9.4
2019-Nov-21 23:23 215 0 gusting 3 9.4
2019-Nov-21 23:13 224 0 gusting 2 9.4
2019-Nov-21 23:03 239 0 gusting 3 10.0
2019-Nov-21 22:53 211 0 gusting 2 10.0
2019-Nov-21 22:43 193 0 gusting 3 10.0
2019-Nov-21 22:33 197 10.0
2019-Nov-21 22:23 152 0 gusting 2 10.0
2019-Nov-21 22:13 181 1 gusting 3 10.0
2019-Nov-21 22:03 242 1 gusting 2 10.0
2019-Nov-21 21:53 226 0 gusting 1 10.0
2019-Nov-21 21:43 263 10.0
2019-Nov-21 21:33 111 10.0
2019-Nov-21 21:23 135 9.4
2019-Nov-21 21:13 135 0 gusting 1 8.9
2019-Nov-21 21:03 121 8.9
2019-Nov-21 20:53 242 8.9
2019-Nov-21 20:43 091 8.3
2019-Nov-21 20:33 274 0 gusting 1 7.8
2019-Nov-21 20:23 305 7.2
2019-Nov-21 20:13 201 6.7
2019-Nov-21 20:03 045 5.6
2019-Nov-21 19:53 043 5.6
2019-Nov-21 19:43 020 5.0
2019-Nov-21 19:33 293 4.4
2019-Nov-21 19:23 318 4.4
2019-Nov-21 19:13 001 0 gusting 2 3.9
2019-Nov-21 19:03 318 3.3
2019-Nov-21 18:53 307 0 gusting 3 3.3
2019-Nov-21 18:43 318 0 gusting 2 3.3
2019-Nov-21 18:33 318 1 gusting 2 2.8
2019-Nov-21 18:23 324 2.2
2019-Nov-21 18:13 337 2.2
2019-Nov-21 18:03 047 2.2
2019-Nov-21 17:53 077 1.7
2019-Nov-21 17:43 114 1.1
2019-Nov-21 17:33 096 0 gusting 1 1.1
2019-Nov-21 17:23 107 1.1
2019-Nov-21 17:13 118 1.1
2019-Nov-21 17:03 117 -0.0
2019-Nov-21 16:53 115 -0.0
2019-Nov-21 16:43 115 -0.6
2019-Nov-21 16:33 114 -1.1
2019-Nov-21 16:03 114 -1.7
2019-Nov-21 15:53 114 -2.8
2019-Nov-21 15:43 114 -2.8
2019-Nov-21 15:33 115 -2.8
2019-Nov-21 15:23 137 -2.8
2019-Nov-21 15:13 137 -3.3
2019-Nov-21 15:03 137 -3.3
2019-Nov-21 14:53 321 -2.8
2019-Nov-21 14:43 322 0 gusting 1 -2.8
2019-Nov-21 14:33 128 -2.8
2019-Nov-21 14:23 128 -2.8
2019-Nov-21 14:13 128 -2.8
2019-Nov-21 14:03 128 -2.8
2019-Nov-21 13:53 129 -2.2
2019-Nov-21 13:43 128 -2.2
2019-Nov-21 13:33 105 -2.8
2019-Nov-21 13:23 094 -2.8
2019-Nov-21 13:13 354 -2.8
2019-Nov-21 13:03 333 -2.8
2019-Nov-21 12:53 333 -2.8
2019-Nov-21 12:43 333 -2.8
2019-Nov-21 12:33 333 -2.8
2019-Nov-21 12:23 333 -2.8
2019-Nov-21 12:13 333 -2.8
2019-Nov-21 12:03 333 -2.2
2019-Nov-21 11:53 333 -2.2
2019-Nov-21 11:43 333 -2.2
2019-Nov-21 11:33 093 -2.2
2019-Nov-21 11:23 096 -2.2
2019-Nov-21 11:13 096 -2.2
2019-Nov-21 11:03 318 -2.2
2019-Nov-21 10:53 318 -2.2
2019-Nov-21 10:43 318 -2.2
2019-Nov-21 10:33 317 -2.2
2019-Nov-21 10:23 317 -2.2
2019-Nov-21 10:13 318 0 gusting 1 -2.2
2019-Nov-21 10:03 297 -2.2
2019-Nov-21 09:53 296 -2.2
2019-Nov-21 09:43 297 -2.2
2019-Nov-21 09:33 296 -2.2
2019-Nov-21 09:23 302 -2.2
2019-Nov-21 09:13 302 -2.2
2019-Nov-21 09:03 297 -1.7
2019-Nov-21 08:53 298 -1.7
2019-Nov-21 08:43 098 -1.7
2019-Nov-21 08:33 331 -1.7
2019-Nov-21 08:23 331 -1.7
2019-Nov-21 08:13 331 -1.7
2019-Nov-21 08:03 331 -1.7
2019-Nov-21 07:53 332 -1.7
2019-Nov-21 07:43 331 -1.1
2019-Nov-21 07:33 332 -1.1
2019-Nov-21 07:23 332 0 gusting 0 -1.1
2019-Nov-21 07:13 102 -1.1
2019-Nov-21 07:03 102 -1.1
2019-Nov-21 06:53 117 -1.1
2019-Nov-21 06:43 117 -1.1
2019-Nov-21 06:33 117 0 gusting 0 -1.1
2019-Nov-21 06:23 117 -1.1
2019-Nov-21 06:13 314 -1.1
2019-Nov-21 06:03 313 -1.1
2019-Nov-21 05:53 077 -0.6
2019-Nov-21 05:43 077 -0.6
2019-Nov-21 05:33 077 -0.6
2019-Nov-21 05:23 076 -0.0
2019-Nov-21 05:13 076 -0.0
2019-Nov-21 05:03 076 -0.0
2019-Nov-21 04:53 076 -0.0
2019-Nov-21 04:43 076 0.6
2019-Nov-21 04:33 077 0.6
2019-Nov-21 04:23 076 0.6
2019-Nov-21 04:13 077 0.6
2019-Nov-21 04:03 076 0.6
2019-Nov-21 03:53 077 1.1
2019-Nov-21 03:43 076 1.1
2019-Nov-21 03:33 077 1.1
2019-Nov-21 03:23 077 1.1
2019-Nov-21 03:13 102 0 gusting 1 1.7
2019-Nov-21 03:03 104 1.7
2019-Nov-21 02:53 019 2.2
2019-Nov-21 02:43 019 2.2
2019-Nov-21 02:33 041 2.2
2019-Nov-21 02:23 041 2.8
2019-Nov-21 02:13 041 2.8
2019-Nov-21 02:03 041 3.3
2019-Nov-21 01:53 041 3.3
2019-Nov-21 01:43 041 3.3
2019-Nov-21 01:33 041 3.9
2019-Nov-21 01:23 322 4.4
2019-Nov-21 01:13 322 5.0
2019-Nov-21 01:03 322 5.6
2019-Nov-21 00:53 322 6.1
2019-Nov-21 00:43 321 6.7
2019-Nov-21 00:33 321 7.8
2019-Nov-21 00:23 322 8.3
2019-Nov-21 00:13 321 8.9
2019-Nov-21 00:03 321 9.4
2019-Nov-20 23:53 322 9.4
2019-Nov-20 23:43 319 10.0
2019-Nov-20 23:33 319 3 gusting 5 10.0
2019-Nov-20 23:23 319 2 gusting 5 10.0
2019-Nov-20 23:13 325 2 gusting 6 10.0
2019-Nov-20 23:03 335 3 gusting 6 10.0
2019-Nov-20 22:53 312 1 gusting 5 10.0
2019-Nov-20 22:43 309 1 gusting 6 10.0
2019-Nov-20 22:34 324 1 gusting 4 10.6
2019-Nov-20 22:23 334 2 gusting 6 10.6
2019-Nov-20 22:13 298 11.1
2019-Nov-20 22:03 304 0 gusting 5 10.6
2019-Nov-20 21:53 325 1 gusting 4 10.0
2019-Nov-20 21:43 327 4 gusting 6 10.0
2019-Nov-20 21:33 089 10.0
2019-Nov-20 21:23 134 0 gusting 2 9.4
2019-Nov-20 21:13 142 1 gusting 3 9.4
2019-Nov-20 21:03 253 0 gusting 4 9.4
2019-Nov-20 20:53 122 10.0
2019-Nov-20 20:43 269 9.4
2019-Nov-20 20:33 029 9.4
2019-Nov-20 20:23 204 8.3
2019-Nov-20 20:13 325 7.8
2019-Nov-20 20:03 283 1 gusting 3 7.2
2019-Nov-20 19:53 065 6.7
2019-Nov-20 19:43 316 2 gusting 5 6.1
2019-Nov-20 19:33 259 6.1
2019-Nov-20 19:23 203 5.6
2019-Nov-20 19:13 259 5.0
2019-Nov-20 19:03 328 0 gusting 2 5.0
2019-Nov-20 18:53 338 0 gusting 1 5.0
2019-Nov-20 18:43 333 4.4
2019-Nov-20 18:33 098 4.4
2019-Nov-20 18:23 308 4.4
2019-Nov-20 18:13 323 3.9
2019-Nov-20 18:03 347 3.3
2019-Nov-20 17:53 321 3.3
2019-Nov-20 17:43 337 2.8
2019-Nov-20 17:33 278 2.8
2019-Nov-20 17:23 278 2.2
2019-Nov-20 17:13 316 1.1
2019-Nov-20 17:03 316 1.1
2019-Nov-20 16:53 316 1.7
2019-Nov-20 16:43 316 0.6
2019-Nov-20 16:33 114 0 gusting 1 -0.0
2019-Nov-20 16:23 096 -0.0
2019-Nov-20 16:13 110 0 gusting 1 -0.0
2019-Nov-20 16:03 259 -0.6
2019-Nov-20 15:53 293 -0.6
2019-Nov-20 15:43 293 -1.1
2019-Nov-20 15:33 300 -1.1
2019-Nov-20 15:23 104 -1.1
2019-Nov-20 15:13 117 -1.1
2019-Nov-20 15:03 117 -1.1
2019-Nov-20 14:53 117 -1.1
2019-Nov-20 14:33 131 -0.6
2019-Nov-20 14:23 131 -0.6
2019-Nov-20 14:13 243 -0.6
2019-Nov-20 14:03 129 -0.6
2019-Nov-20 13:53 130 -0.6
2019-Nov-20 13:43 130 -0.6
2019-Nov-20 13:33 128 -0.6
2019-Nov-20 13:23 128 -0.6
2019-Nov-20 13:13 102 0 gusting 1 -0.0
2019-Nov-20 13:03 297 -0.0
2019-Nov-20 12:53 297 -0.0
2019-Nov-20 12:43 236 -0.0
2019-Nov-20 12:33 236 0.6
2019-Nov-20 12:23 132 0.6
2019-Nov-20 12:13 110 1 gusting 1 1.1
2019-Nov-20 12:03 121 1.1